Chicago Executive, IL

4:51 AM CST on December 16, 2019 (GMT -0600)
Chicago Executive

Weather History for KPWK - September, 2019

Change the Weather History Date:

Friday, September 27, 2019

  Actual Average Record
Temperature  
Mean Temperature 64 °F 59 °F  
Max Temperature 70 °F 70 °F 84 °F (1998)
Min Temperature 59 °F 49 °F 44 °F (2001)
Degree Days  
Heating Degree Days 0 7  
Month to date heating degree days 2 79  
Since 1 July heating degree days 2 89  
Cooling Degree Days 0 1  
Month to date cooling degree days 165 76  
Year to date cooling degree days 972 773  
Growing Degree Days 14 (Base 50)    
Moisture  
Dew Point 58 °F    
Average Humidity 78    
Maximum Humidity 90    
Minimum Humidity 43    
Precipitation  
Precipitation 1.16 in 0.11 in 0.68 in (1999)
Month to date precipitation 6.66 2.82  
Year to date precipitation 35.98 25.30  
Sea Level Pressure  
Sea Level Pressure 29.78 in    
Wind  
Wind Speed 8 mph ()    
Max Wind Speed 24 mph    
Max Gust Speed 33 mph    
Visibility 8.2 miles    
Events Rain , Thunderstorm    
T = Trace of Precipitation, MM = Missing Value Source: Averaged Metar Reports

Daily Weather History Graph

Daily Weather History Graph

Search for Another Location

Airport or City:

Astronomy

Sep. 27, 2019 Rise Set
Actual Time 6:44 AM CDT 6:40 PM CDT
Civil Twilight 6:16 AM CDT 7:08 PM CDT
Nautical Twilight 5:43 AM CDT 7:40 PM CDT
Astronomical Twilight 5:10 AM CDT 8:13 PM CDT
Moon 5:02 AM CDT (9/27) 6:33 PM CDT (9/27)
Length of Visible Light 12h 52m
Length of Day
11h 56m
Waning Crescent, 2% of the Moon is Illuminated
Sep 27
Waning Crescent
Sep 28
New
Oct 5
First Quarter
Oct 13
Full
Oct 21
Last Quarter

Hourly Weather History & Observations

Time (CDT) Temp. Dew Point Humidity Pressure Visibility Wind Dir Wind Speed Gust Speed Precip Events Conditions
12:52 AM 60.1 °F 45.0 °F 57% 29.90 in 10.0 mi South 5.8 mph - N/A   Clear
1:52 AM 60.1 °F 45.0 °F 57% 29.88 in 10.0 mi South 9.2 mph - N/A   Clear
2:52 AM 62.1 °F 44.1 °F 52% 29.86 in 10.0 mi SSE 8.1 mph - N/A   Overcast
3:52 AM 63.0 °F 44.1 °F 50% 29.85 in 10.0 mi South 8.1 mph - N/A   Overcast
4:52 AM 62.1 °F 44.1 °F 52% 29.83 in 10.0 mi South 9.2 mph - 0.00 in   Overcast
5:52 AM 64.9 °F 42.1 °F 43% 29.83 in 10.0 mi South 12.7 mph - N/A   Overcast
6:52 AM 64.9 °F 43.0 °F 45% 29.82 in 10.0 mi South 13.8 mph - N/A   Mostly Cloudy
7:52 AM 66.0 °F 44.1 °F 45% 29.80 in 10.0 mi South 15.0 mph - N/A   Overcast
8:52 AM 68.0 °F 45.0 °F 43% 29.78 in 10.0 mi South 15.0 mph 24.2 mph N/A   Scattered Clouds
10:12 AM 68.0 °F 46.9 °F 47% 29.81 in 10.0 mi SSW 13.8 mph 24.2 mph N/A Thunderstorm Overcast
10:27 AM 68.0 °F 46.9 °F 47% 29.82 in 10.0 mi SSW 11.5 mph 19.6 mph N/A   Overcast
10:35 AM 66.9 °F 48.0 °F 51% 29.81 in 10.0 mi South 13.8 mph - 0.00 in Rain , Thunderstorm Light Rain
10:50 AM 66.2 °F 50.0 °F 56% 29.82 in 7.0 mi SW 8.1 mph - 0.01 in Rain , Thunderstorm Rain
10:52 AM 64.9 °F 51.1 °F 61% 29.82 in 6.0 mi SW 5.8 mph - 0.02 in Rain , Thunderstorm Light Rain
11:00 AM 64.0 °F 52.0 °F 65% 29.82 in 9.0 mi WSW 5.8 mph - 0.00 in Rain , Thunderstorm Light Thunderstorms and Rain
11:19 AM 61.0 °F 53.1 °F 75% 29.87 in 1.0 mi SW 11.5 mph 19.6 mph 0.24 in Rain , Thunderstorm Heavy Thunderstorms and Rain
11:25 AM 59.0 °F 54.0 °F 83% 29.87 in 0.5 mi SW 8.1 mph 19.6 mph 0.47 in Rain , Thunderstorm Heavy Thunderstorms and Rain
11:32 AM 59.0 °F 55.0 °F 87% 29.86 in 1.0 mi SW 8.1 mph - 0.51 in Rain , Thunderstorm Thunderstorms and Rain
11:34 AM 59.0 °F 55.0 °F 87% 29.86 in 2.0 mi SW 8.1 mph - 0.51 in Rain , Thunderstorm Light Thunderstorms and Rain
11:36 AM 59.0 °F 55.0 °F 87% 29.86 in 3.0 mi SSW 9.2 mph - 0.52 in Rain , Thunderstorm Light Rain
11:52 AM 59.0 °F 55.0 °F 87% 29.85 in 5.0 mi South 5.8 mph - 0.57 in Rain Rain
12:52 PM 61.0 °F 57.0 °F 87% 29.74 in 10.0 mi South 13.8 mph 26.5 mph 0.09 in   Scattered Clouds
1:28 PM 63.0 °F 59.0 °F 87% 29.71 in 10.0 mi South 10.4 mph - 0.00 in   Mostly Cloudy
1:49 PM 64.4 °F 60.8 °F 88% 29.70 in 10.0 mi SSE 9.2 mph - 0.00 in   Scattered Clouds
1:52 PM 64.0 °F 60.1 °F 87% 29.70 in 10.0 mi South 9.2 mph - 0.00 in   Scattered Clouds
2:11 PM 64.9 °F 61.0 °F 87% 29.73 in 10.0 mi South 13.8 mph 23.0 mph N/A   Scattered Clouds
2:21 PM 64.9 °F 61.0 °F 87% 29.71 in 10.0 mi South 17.3 mph 25.3 mph N/A   Mostly Cloudy
2:52 PM 66.0 °F 62.1 °F 87% 29.70 in 10.0 mi SSW 11.5 mph - N/A Thunderstorm Mostly Cloudy
3:05 PM 66.9 °F 63.0 °F 87% 29.71 in 8.0 mi SSW 11.5 mph - 0.03 in Rain , Thunderstorm Light Thunderstorms and Rain
3:33 PM 68.0 °F 64.0 °F 87% 29.69 in 10.0 mi SSW 10.4 mph 21.9 mph 0.03 in   Overcast
3:52 PM 68.0 °F 64.0 °F 87% 29.69 in 10.0 mi SSW 10.4 mph - 0.03 in   Overcast
4:52 PM 69.1 °F 64.0 °F 84% 29.69 in 10.0 mi SSW 5.8 mph - N/A   Overcast
5:52 PM 69.1 °F 64.0 °F 84% 29.72 in 10.0 mi SSW 6.9 mph - N/A   Overcast
6:16 PM 69.1 °F 64.9 °F 87% 29.72 in 10.0 mi SSW 6.9 mph - N/A   Overcast
6:23 PM 69.1 °F 64.9 °F 87% 29.71 in 10.0 mi South 5.8 mph - N/A   Overcast
6:35 PM 69.1 °F 64.9 °F 87% 29.71 in 10.0 mi South 5.8 mph - N/A Thunderstorm Thunderstorm
6:45 PM 69.1 °F 64.9 °F 87% 29.74 in 2.0 mi SW 5.8 mph - 0.14 in Rain , Thunderstorm Heavy Thunderstorms and Rain
6:52 PM 69.1 °F 64.9 °F 87% 29.70 in 2.5 mi SW 4.6 mph - 0.17 in Rain , Thunderstorm Light Thunderstorms and Rain
6:59 PM 69.1 °F 66.0 °F 90% 29.71 in 10.0 mi Variable 4.6 mph - 0.00 in Thunderstorm Thunderstorm
7:10 PM 69.1 °F 66.0 °F 90% 29.72 in 10.0 mi SW 5.8 mph - 0.00 in   Overcast
7:52 PM 69.1 °F 66.0 °F 90% 29.72 in 10.0 mi SSE 6.9 mph - 0.00 in Thunderstorm Overcast
8:11 PM 69.1 °F 66.0 °F 90% 29.74 in 9.0 mi WSW 4.6 mph - 0.00 in Thunderstorm Thunderstorm
8:34 PM 70.0 °F 66.0 °F 87% 29.73 in 10.0 mi South 11.5 mph - 0.02 in Thunderstorm Overcast
8:44 PM 70.0 °F 66.0 °F 87% 29.73 in 10.0 mi South 16.1 mph - 0.03 in Thunderstorm Mostly Cloudy
8:52 PM 69.1 °F 64.9 °F 87% 29.73 in 6.0 mi SSW 13.8 mph 27.6 mph 0.07 in Rain , Thunderstorm Thunderstorms and Rain
9:14 PM 68.0 °F 64.0 °F 87% 29.76 in 10.0 mi SW 5.8 mph - 0.02 in Rain , Thunderstorm Light Rain
9:29 PM 68.0 °F 64.9 °F 90% 29.77 in 9.0 mi Calm Calm - 0.03 in Rain , Thunderstorm Light Rain
9:52 PM 68.0 °F 64.0 °F 87% 29.77 in 10.0 mi SSW 5.8 mph - 0.05 in Rain , Thunderstorm Light Rain
9:58 PM 68.0 °F 64.0 °F 87% 29.77 in 10.0 mi South 5.8 mph - 0.00 in Rain Light Rain
10:12 PM 68.0 °F 64.9 °F 90% 29.79 in 10.0 mi WSW 4.6 mph - 0.01 in Rain , Thunderstorm Light Rain
10:34 PM 68.0 °F 64.9 °F 90% 29.78 in 10.0 mi West 4.6 mph - 0.03 in Rain Light Rain
10:52 PM 68.0 °F 64.9 °F 90% 29.79 in 8.0 mi SSW 6.9 mph - 0.04 in Rain , Thunderstorm Light Rain
10:59 PM 68.0 °F 64.9 °F 90% 29.79 in 6.0 mi SSW 3.5 mph - 0.02 in Rain , Thunderstorm Light Rain
11:11 PM 68.0 °F 64.9 °F 90% 29.79 in 3.0 mi West 3.5 mph - 0.06 in Rain , Thunderstorm Thunderstorms and Rain
11:24 PM 68.0 °F 64.9 °F 90% 29.80 in 6.0 mi Calm Calm - 0.08 in Rain , Thunderstorm Light Thunderstorms and Rain
11:35 PM 68.0 °F 64.9 °F 90% 29.80 in 5.0 mi Calm Calm - 0.09 in Rain , Thunderstorm Light Rain
11:52 PM 68.0 °F 64.9 °F 90% 29.81 in 10.0 mi SW 4.6 mph - 0.10 in Rain , Thunderstorm Light Thunderstorms and Rain